Regional Weather Roundup
Issued by NWS

Home | Current Version | Previous Version | Text Only | Print | Product List | Glossary On
Versions: 1 2 3 4 5 6 7 8 9 10 11 12 13 14 15 16 17 18 19 20 21 22 23 24 25 26 27 28 29 30 31 32 33 34 35 36 37 38 39 40 41 42 43 44 45 46 47 48 49 50
000
ASUS43 KLSX 202007
RWRMO

WEATHER SUMMARY FOR MISSOURI
NATIONAL WEATHER SERVICE SPRINGFIELD MO
300 PM CDT MON APR 20 2015

NOTE: "FAIR" INDICATES FEW OR NO CLOUDS BELOW 12,000 FEET WITH NO
       SIGNIFICANT WEATHER AND/OR OBSTRUCTIONS TO VISIBILITY.
       CURRENT SKY AND/OR WEATHER CONDITIONS ARE NOT AVAILABLE FOR
       CHILLICOTHE AND FARMINGTON.

MOZ001>031-035>038-043-044-053-054-202100-
...NORTHERN AND WESTERN MISSOURI...

CITY           SKY/WX    TMP DP  RH WIND       PRES   REMARKS
KANSAS CTY INT MOSUNNY   57  25  29 NW20G32   29.83S
KANSAS C DTWN  MOSUNNY   59  24  26 W18G28    29.83S
LEE`S SUMMIT   MOSUNNY   58  28  32 NW17G37   29.84S
ST JOSEPH      MOSUNNY   58  27  30 NW24G33   29.83S
CHILLICOTHE      N/A     55  31  39 W10G21    29.80R
KIRKSVILLE     CLOUDY    52  35  52 W16G25    29.75S

$$
MOZ066>068-077>081-088>096-101>105-202100-
...SOUTHWEST MISSOURI...

CITY           SKY/WX    TMP DP  RH WIND       PRES   REMARKS
SPRINGFIELD    MOSUNNY   58  33  39 W20G28    29.88S
JOPLIN         SUNNY     57  30  35 NW17G28   29.93S

$$
MOZ032>034-039>042-045>050-055>058-069>072-202100-
...CENTRAL MISSOURI...

CITY           SKY/WX    TMP DP  RH WIND       PRES   REMARKS
COLUMBIA       PTSUNNY   54  33  45 W16G24    29.80R
JEFFERSON CITY CLOUDY    54  32  43 W15       29.81R
ROLLA          PTSUNNY   56  31  38 W16G28    29.79R
SEDALIA        PTSUNNY   55  32  41 NW14G25   29.83S
WHITEMAN AFB   MOSUNNY   57  29  35 NW13G25   29.82S
WARRENSBURG    PTSUNNY   57  28  33 W17G24    29.83S
OSAGE BEACH    MOSUNNY   57  30  35 W15G26    29.83R

$$
MOZ051-052-059>065-202100-
...EAST CENTRAL MISSOURI...

CITY           SKY/WX    TMP DP  RH WIND       PRES   REMARKS
ST LOUIS INTL  PTSUNNY   57  34  41 NW22G32   29.76R
SPIRIT OF STL  PTSUNNY   56  33  42 NW21G30   29.76R
ST CHARLES     CLOUDY    55  35  47 W21G30    29.75R

$$
MOZ072>076-082>087-097>100-106>115-202100-
...SOUTH CENTRAL AND SOUTHEAST MISSOURI...

CITY           SKY/WX    TMP DP  RH WIND       PRES   REMARKS
CAPE GIRARDEAU PTSUNNY   62  39  42 W17       29.76R
FARMINGTON     MOSUNNY   57  30  35 W13G23    29.81R
POPLAR BLUFF   LGT RAIN  65  34  31 W17G23    29.77S
WEST PLAINS    MOSUNNY   62  34  35 NW14G21   29.83F

$$



USA.gov is the U.S. government's official web portal to all federal, state and local government web resources and services.